Regional Weather Roundup
Issued by NWS

Home | Current Version | Previous Version | Text Only | Print | Product List | Glossary Off
Versions: 1 2 3 4 5 6 7 8 9 10 11 12 13 14 15 16 17 18 19 20 21 22 23 24 25 26 27 28 29 30 31 32 33 34 35 36 37 38 39 40 41 42 43 44 45 46 47 48 49 50

000
ASUS45 KCYS 160310
RWRWY

WYOMING REGIONAL WEATHER ROUNDUP
NATIONAL WEATHER SERVICE CHEYENNE WY
900 PM MDT TUE AUG 15 2017

NOTE:  "FAIR" INDICATES FEW OR NO CLOUDS BELOW 12,000 FEET
WITH NO SIGNIFICANT WEATHER AND/OR OBSTRUCTIONS TO VISIBILITY.

WYZ001-160400-
YELLOWSTONE NATIONAL PARK

CITY           SKY/WX    TMP DP  RH WIND       PRES   REMARKS
LK YELLOWSTONE   N/A     48  44  86 CALM      30.19R
W YELLOWSTONE  NOT AVBL

$$
WYZ002>013-054>058-071-098>099-160400-
NORTHERN WYOMING

CITY           SKY/WX    TMP DP  RH WIND       PRES   REMARKS
JACKSON        CLOUDY    57  37  47 NE5       30.11R
CODY           FAIR      63  47  55 VRB3      30.03R
GREYBULL       FAIR      68  49  50 CALM      29.94R
WORLAND        FAIR      61  50  67 SE7       29.96R
SHERIDAN       FAIR      56  48  74 SW6       29.97R
BUFFALO        FAIR      58  45  62 SW6       30.04R
GILLETTE       FAIR      56  48  74 NW6       29.99R
HULETT         FAIR      61  55  82 CALM      30.00R
NEWCASTLE      FAIR      61  52  72 NW7       29.95F

$$
WYZ014>020-022>026-101>103-160400-
CENTRAL WYOMING

CITY           SKY/WX    TMP DP  RH WIND       PRES   REMARKS
BIG PINEY      FAIR      57  40  52 N8        30.13R
PINEDALE       MOCLDY    59  37  44 NE6       30.14R
DUBOIS         FAIR      50  41  71 SW3       30.14R
LANDER           N/A    N/A N/A N/A MISG      30.05R
RIVERTON       FAIR      60  48  64 W10       30.05R
CASPER         CLOUDY    59  50  72 N6        30.06R
DOUGLAS        RAIN      57  54  89 NE6       30.03F

$$
WYZ021-027>030-104>119-160400-
SOUTHERN WYOMING

CITY           SKY/WX    TMP DP  RH WIND       PRES   REMARKS
EVANSTON       FAIR      60  29  30 W9        30.12R
KEMMERER         N/A     59  36  41 N12       30.14R
FORT BRIDGER   FAIR      61  37  39 NW7       30.14R
ROCK SPRINGS   FAIR      57  46  66 S8        30.10R
RAWLINS        FAIR      52  44  74 NE6       30.13R
SARATOGA       FAIR      52  45  76 CALM      30.15R
LARAMIE        MOCLDY    53  44  71 SW6       30.11R
CHEYENNE       CLOUDY    56  48  74 N5        30.06R
TORRINGTON     FAIR      61  56  83 NW9       29.95R
PINE BLUFFS    LGT RAIN  59  52  77 NW10      30.01S

$$



USA.gov is the U.S. government's official web portal to all federal, state and local government web resources and services.